Zurück zum Katalog

SL-16 R/B

AktivLEO
NORAD 17974·ROCKET BODY·🇷🇺 Russia

Gestartet May 13, 1987 von Baikonur Cosmodrome

Loading…

Nächste Überflüge (nächste 24 Stunden)

TLE

AktuellSource: Space-Track

Epoche: Sep 14, 2026, 13:13 UTC

1 17974U 87041B   26257.55117689 -.00000125  00000-0 -37740-4 0  9997
2 17974  71.0108 354.6392 0016141 275.6271  95.1648 14.17665040 34860

Verfolge SL-16 R/B in Echtzeit mit AllMySat

Download on the App Store